Flag for Germany Weather past 2 weeks in Calw, Baden-Württemberg, Germany

Now
51 °F

Overcast.


Feels Like: 49 °F
Forecast: 44 / 49 °F
Wind: 5 mph from Southwest

Location: Stuttgart-Echterdingen

Current Time: Dec 18, 2014 at 12:45:34 PM

Latest Report: Dec 18, 2014 at 12:00 PM


Visibility: 38 mi

Pressure: 30.01 "Hg

Humidity: 82%

Dew point: 45 °F

Location of CalwLocation

Historic Weather in Calw — Graph

°F

Calw temperature yesterday

Maximum temperature yesterday: 43 °F (at 11:00 PM)
Minimum temperature yesterday: 34 °F (at 4:00 AM)
Average temperature yesterday: 39 °F

Past Weeks' High & Low Weather Summary

 TemperatureHumidityPressure
High53 °F (Dec 13, 1:00 PM)98% (Dec 3, 11:00 AM)30.48 "Hg (Dec 3, 11:00 AM)
Low29 °F (Dec 9, 3:00 AM)55% (Dec 12, 1:00 PM)29.76 "Hg (Dec 12, 7:00 PM)
Average40 °F86%30.08 "Hg
* Reported Dec 3 11:00 AM — Dec 18 11:00 AM, Calw, Weather by CustomWeather, © 2014

Note: Actual official high and low records may vary slightly from our data, if they occured in-between our weather recording intervals... More about our weather records

Advertising

Calw weather history for previous 24 hours

 ConditionsComfort  
Time TempWeatherWind HumidityBarometerVisibility
11:00 AM
Dec 18
50 °FOvercast.3 mph82%30.02 "Hg31 mi
9:00 AM48 °FOvercast.2 mph82%30.02 "Hg31 mi
8:00 AM47 °FOvercast.3 mph83%30.02 "Hg43 mi
7:00 AM46 °FOvercast.2 mph85%30.02 "Hg12 mi
6:00 AM45 °FOvercast.2 mph86%30.02 "Hg12 mi
5:00 AM45 °FOvercast.3 mph86%30.02 "Hg12 mi
3:00 AM45 °FOvercast.2 mph85%30.02 "Hg12 mi
2:00 AM45 °FOvercast.3 mph86%30.01 "Hg12 mi
1:00 AM44 °FOvercast.5 mph87%30.01 "Hg12 mi
12:00 AM44 °FLow clouds.3 mph87%29.98 "Hg12 mi
11:00 PM
Dec 17
43 °FLow clouds.3 mph87%29.97 "Hg12 mi
9:00 PM42 °FLow clouds.5 mph89%29.93 "Hg12 mi
8:00 PM41 °FLow clouds.3 mph88%29.90 "Hg12 mi
7:00 PM40 °FLight rain. Low clouds.3 mph92%29.88 "Hg12 mi
6:00 PM40 °FLight rain. Overcast.5 mph92%29.87 "Hg11 mi
5:00 PM39 °FLight rain. Overcast.5 mph89%29.83 "Hg11 mi
4:00 PM39 °FRain. Overcast.6 mph88%29.82 "Hg7 mi
3:00 PM39 °FRain. Overcast.5 mph88%29.82 "Hg7 mi
2:00 PM40 °FLight rain. Overcast.3 mph80%29.83 "Hg9 mi
1:00 PM42 °FOvercast.6 mph72%29.85 "Hg34 mi
12:00 PM41 °FOvercast.5 mph74%29.88 "Hg37 mi
Weather by CustomWeather, © 2014

See weather overviewHow to use our weather pages